Location: Unspecified
(50.0077°N, 36.2988°E)
Time: 07:43:50
(UTC+00:00)

ISS - Visible Passes

Search period start: 21 September 2020 00:00
Search period end: 01 October 2020 00:00
Orbit: 419 x 420 km, 51.6° (Epoch: 21 September)

Date Brightness Start Highest point End Pass type
(mag) Time Alt. Az. Time Alt. Az. Time Alt. Az.
21 Sep -3.9 17:21:33 10° WSW 17:24:55 84° SSE 17:25:30 58° E visible
22 Sep -3.7 16:34:11 10° WSW 16:37:32 65° SSE 16:40:02 17° ENE visible
22 Sep -1.9 18:11:02 10° W 18:12:59 31° WNW 18:12:59 31° WNW visible
23 Sep -3.6 17:23:34 10° W 17:26:57 69° N 17:27:26 57° NE visible
24 Sep -3.7 16:36:07 10° W 16:39:29 79° NNW 16:41:49 19° ENE visible
24 Sep -1.6 18:13:05 10° WNW 18:14:47 27° WNW 18:14:47 27° WNW visible
25 Sep -3.6 17:25:37 10° W 17:28:59 64° N 17:29:08 63° NNE visible
26 Sep -3.5 16:38:07 10° W 16:41:29 64° N 16:43:27 23° ENE visible
26 Sep -1.3 18:15:03 10° WNW 18:16:24 22° WNW 18:16:24 22° WNW visible
27 Sep -3.5 15:50:37 10° W 15:53:59 69° N 15:57:21 10° ENE visible
27 Sep -3.6 17:27:35 10° WNW 17:30:42 70° NW 17:30:42 70° NW visible
28 Sep -3.6 16:40:05 10° WNW 16:43:27 68° N 16:45:00 29° E visible
28 Sep -1.0 18:16:58 10° WNW 18:17:57 18° W 18:17:57 18° W visible
29 Sep -3.5 15:52:34 10° W 15:55:56 64° N 15:59:18 10° E visible
29 Sep -3.1 17:29:27 10° WNW 17:32:15 54° WSW 17:32:15 54° WSW visible
30 Sep -3.8 16:41:57 10° WNW 16:45:20 87° SSW 16:46:34 37° ESE visible
30 Sep -0.6 18:19:03 10° W 18:19:31 13° W 18:19:31 13° W visible
